Wind_Speed
54 55 55 56 55 56 56 57 56 56 57 58 58 58 57 55 55 56 56 55 54 53 53 51 49 48 48 49 50 48 47 46 46 46 45 44 45 45 46 44 40 39 39 37 36 35 36 37 38 39 41 42 45 47 48 48 48 48 50 50 48 48 47 48 50 49 46 44 41 39 39 42 44 46 49 51 53 54 55 57 58 59 59 59 58 57
52 52 52 52 52 52 53 53 53 54 55 55 56 55 53 52 52 52 53 53 52 51 51 50 47 46 46 48 48 46 46 45 44 44 43 42 42 44 45 42 38 38 37 35 34 34 35 36 37 37 40 42 43 45 47 46 46 46 48 50 49 49 49 49 50 51 49 46 46 46 45 46 48 50 52 54 55 55 56 56 57 58 58 58 57 56
50 49 49 49 49 50 50 50 50 52 53 53 53 52 50 50 50 50 50 50 50 49 49 48 46 45 46 47 48 47 47 45 44 44 42 41 42 43 43 41 38 38 37 36 35 34 35 36 36 36 38 41 42 44 45 46 46 45 46 48 49 51 52 51 51 52 51 49 50 51 51 51 52 54 55 56 56 57 57 57 56 56 56 56 56 55
46 46 46 46 46 47 47 47 48 49 50 51 50 49 48 48 48 48 48 48 47 47 47 47 47 47 48 48 48 48 47 45 44 43 42 41 41 41 41 41 39 38 37 37 36 35 35 36 36 36 37 39 42 44 45 46 46 46 45 46 47 50 54 55 56 55 54 55 56 55 55 55 56 57 58 58 57 57 57 56 54 54 54 55 56 55
44 44 43 43 44 45 45 45 46 47 49 50 50 48 46 46 46 46 47 46 46 46 47 47 48 49 49 48 48 47 46 45 44 42 41 40 39 39 40 40 39 38 38 37 36 36 37 37 37 37 37 38 40 42 44 45 46 46 46 46 46 48 52 56 60 62 62 63 63 62 60 60 60 60 59 58 57 56 55 53 52 53 54 55 55 54
43 43 42 43 44 44 44 45 45 46 48 49 49 47 45 44 45 46 46 46 46 47 47 46 48 49 49 48 47 46 45 43 42 40 40 39 38 39 40 40 39 38 38 38 38 38 39 40 40 38 38 38 38 40 42 44 45 45 45 46 47 48 50 54 58 62 65 67 68 67 65 64 63 61 58 57 56 55 53 51 50 51 52 52 52 51
44 43 43 44 44 44 44 44 45 47 48 49 49 47 44 44 44 46 46 46 46 46 46 46 48 49 49 48 46 44 43 41 40 39 40 40 39 39 39 38 38 38 38 39 40 41 41 41 40 39 38 38 39 39 41 43 45 45 46 47 48 49 50 52 54 57 60 63 65 66 65 64 63 61 59 57 56 55 54 52 51 51 50 49 49 47
44 43 44 45 45 45 45 45 46 47 47 48 49 47 45 44 45 46 46 46 46 45 46 46 47 49 50 49 46 42 41 40 40 39 40 40 39 39 39 39 39 39 38 39 41 42 42 40 39 39 39 38 39 39 40 41 43 45 47 49 50 51 52 52 53 55 57 59 61 63 64 65 65 64 62 60 59 58 56 55 53 51 49 48 46 43
44 45 45 45 45 45 46 47 47 46 46 47 47 47 46 45 45 46 46 46 45 45 46 46 47 49 50 50 46 41 40 40 40 39 40 40 39 39 39 38 39 39 38 39 42 43 42 40 38 38 38 38 39 39 40 40 42 44 46 49 51 53 54 55 55 56 57 58 59 61 63 64 65 64 63 63 62 60 59 56 53 50 47 45 43 41
47 47 46 45 45 46 47 47 46 45 46 46 46 47 47 46 45 46 46 46 46 46 47 46 46 47 48 50 47 42 41 40 39 39 39 39 39 39 38 38 38 38 37 39 41 42 40 38 36 35 36 37 39 39 39 39 40 42 45 48 50 52 53 53 54 55 55 56 56 57 59 60 62 62 62 61 60 58 56 54 50 47 45 43 41 38
49 48 46 46 47 48 49 48 47 46 46 46 46 47 47 47 46 46 46 45 45 45 45 44 44 45 46 49 49 44 40 38 38 38 39 38 39 38 37 37 37 37 37 39 41 40 38 36 34 33 33 34 35 36 36 35 35 38 44 48 49 51 52 51 51 51 51 52 53 53 54 55 56 56 57 57 56 54 53 51 49 46 44 42 40 37
50 48 47 47 48 48 48 48 47 46 46 46 46 47 47 47 46 45 45 43 43 43 43 43 43 45 46 48 49 46 40 37 37 37 38 37 37 37 36 36 36 35 36 39 39 38 36 34 32 31 31 31 30 28 25 25 26 31 40 45 46 47 47 46 47 47 47 48 48 47 47 47 48 49 49 49 50 50 48 47 47 46 43 41 38 35
49 48 48 47 48 48 48 49 48 46 45 46 46 46 46 46 45 44 44 43 43 43 43 43 44 45 46 46 48 46 40 36 36 36 36 36 36 36 35 35 35 35 37 39 38 37 35 34 32 30 30 29 25 19 17 21 26 32 40 44 44 44 45 44 44 43 41 42 42 41 42 42 44 46 45 44 44 44 43 44 45 44 41 39 37 34
48 48 47 46 47 48 48 48 48 46 45 46 46 46 46 45 44 44 44 44 44 44 43 43 44 46 46 43 44 46 41 36 36 35 35 36 36 36 36 36 36 36 38 39 38 37 36 34 32 30 31 28 20 18 24 32 38 42 44 46 44 42 42 44 44 42 39 39 39 40 41 42 44 46 46 45 43 41 41 42 43 42 41 39 37 34
47 47 46 46 47 47 47 47 47 46 46 46 46 46 46 45 44 45 45 45 44 43 43 43 44 45 44 41 41 44 42 37 35 35 35 35 36 36 36 36 37 37 38 39 38 38 38 37 33 31 32 28 22 26 34 40 43 45 47 49 47 43 41 43 44 42 41 42 42 41 42 42 42 44 46 46 44 42 41 43 44 43 42 40 39 38
46 46 45 46 46 46 47 47 47 47 46 46 46 46 46 45 46 47 46 45 43 43 43 43 44 44 42 40 40 43 42 38 37 37 36 36 36 37 38 38 38 38 39 40 40 39 40 39 36 35 34 31 29 33 40 43 45 45 45 46 49 50 48 47 46 44 44 46 46 44 44 44 43 43 44 45 45 43 42 44 45 45 44 43 43 44
44 45 44 45 44 45 47 47 47 48 47 46 46 47 47 47 47 47 46 44 44 44 43 43 44 43 40 39 39 41 42 41 40 39 37 36 34 34 37 39 38 36 35 37 39 41 42 42 41 40 38 36 34 36 41 44 45 45 42 41 46 53 54 51 49 49 50 51 52 50 48 47 48 47 46 44 45 45 44 44 44 45 46 47 48 47
43 45 45 44 43 46 48 48 49 49 47 46 46 47 49 48 47 47 45 44 44 45 46 45 44 43 41 39 39 41 43 43 42 41 40 38 33 31 33 36 37 36 36 38 39 41 43 44 44 43 41 39 39 39 42 44 45 45 42 41 45 53 55 52 51 52 54 56 56 55 52 51 52 52 51 49 50 49 48 47 45 44 45 47 49 48
44 46 46 45 46 47 49 50 50 48 47 47 47 48 49 50 48 46 46 46 46 48 48 46 45 44 42 40 39 41 44 44 44 43 43 42 40 40 41 42 43 43 44 44 43 42 44 45 45 44 42 40 39 40 43 45 46 46 45 45 47 50 51 51 50 51 55 57 58 57 56 55 56 56 55 55 56 57 56 54 51 48 47 47 48 47
45 48 48 48 49 49 50 51 51 49 48 49 49 49 50 50 48 47 47 48 48 49 48 46 46 45 43 41 41 43 45 46 47 46 46 46 46 47 48 48 48 47 47 47 47 47 48 48 48 48 45 43 43 43 45 46 47 47 48 49 51 52 52 52 51 51 53 56 57 58 57 58 59 59 57 55 56 59 61 61 58 55 53 52 51 49
47 50 51 51 51 51 51 52 51 51 51 51 52 52 51 51 49 47 48 48 49 49 49 48 48 47 45 44 43 44 45 47 48 48 48 48 49 49 49 49 49 49 49 50 50 51 52 52 51 50 49 48 48 48 48 48 49 49 50 51 53 55 55 55 56 55 55 57 59 59 58 59 60 60 57 54 54 57 60 62 61 59 58 58 57 56
49 52 53 53 53 52 52 53 53 53 53 53 54 53 52 51 49 48 49 49 49 51 51 50 50 49 47 47 46 46 47 48 49 49 50 50 50 51 51 51 51 52 52 53 53 54 54 54 53 51 51 51 51 51 50 50 51 51 51 53 54 56 56 57 59 60 61 62 63 63 61 60 60 60 59 57 58 58 58 60 61 60 60 60 60 60
50 53 55 55 53 53 53 53 54 55 54 53 54 53 52 52 51 51 52 52 52 54 54 53 53 51 50 50 50 49 50 50 51 52 52 53 53 54 54 53 54 55 55 55 56 56 56 55 55 54 54 53 53 53 52 52 52 52 52 53 55 56 57 58 59 60 61 62 64 65 65 63 62 61 61 62 62 61 61 61 62 63 63 63 63 64
51 53 55 55 54 54 53 53 54 55 55 55 55 53 52 53 53 53 54 55 56 56 57 57 56 54 54 54 53 53 53 54 54 54 55 55 55 56 56 55 56 57 57 58 58 58 57 57 57 57 56 55 55 54 54 53 52 52 51 52 54 55 56 57 59 59 60 60 62 63 64 64 63 62 63 63 64 65 65 64 63 63 63 64 65 66
52 53 55 56 56 56 56 55 55 57 58 59 57 54 54 55 55 55 56 58 58 59 59 59 58 57 56 57 57 56 56 56 56 56 57 57 57 58 58 58 58 58 59 60 60 60 59 59 58 58 57 56 55 55 54 54 53 52 51 51 52 53 54 55 57 58 58 59 59 60 61 61 61 61 61 61 62 63 63 63 63 62 62 61 62 64
55 55 56 58 58 58 60 60 59 60 63 63 62 59 58 59 59 59 60 61 62 63 63 62 61 60 60 60 60 59 59 59 59 60 60 60 60 60 60 60 60 60 60 61 61 61 61 61 60 59 57 56 56 55 54 53 53 52 52 51 52 52 53 54 55 56 57 57 57 57 58 58 59 59 58 58 58 58 58 58 58 57 56 56 55 57
56 57 57 58 59 59 60 61 61 62 64 65 65 63 62 62 62 62 63 64 66 66 67 66 65 65 64 63 63 63 63 63 63 63 63 63 63 62 62 62 62 61 62 62 62 61 61 61 60 60 59 57 55 55 54 54 53 53 53 53 53 53 53 54 54 55 56 56 56 56 56 56 57 57 57 55 54 52 52 53 53 51 51 51 50 54
53 55 55 55 56 56 57 58 59 60 61 63 64 63 62 62 62 63 64 65 66 67 68 68 67 67 66 65 65 65 64 64 64 64 64 64 64 63 63 63 62 62 62 62 62 62 62 62 61 61 60 58 56 55 54 54 54 54 55 55 55 55 55 55 55 55 55 55 55 55 55 56 56 56 57 55 53 52 50 52 53 52 50 49 50 54
51 52 52 52 53 53 53 54 55 57 58 59 60 60 59 58 58 59 60 61 63 64 65 66 65 64 64 64 64 64 64 64 63 63 63 63 62 62 62 62 63 63 63 63 63 63 63 63 63 62 61 60 58 57 56 56 56 56 56 56 57 57 56 56 56 56 56 56 56 56 56 56 55 56 56 56 56 55 53 53 55 54 51 50 51 54
52 52 51 51 53 52 52 52 53 55 56 56 57 57 56 54 53 53 54 55 56 57 59 60 59 59 59 60 60 60 61 62 62 62 62 62 62 62 62 62 62 63 63 63 64 64 64 64 64 63 62 61 60 60 59 59 58 58 58 58 58 57 57 58 58 58 58 58 58 58 58 57 57 57 57 57 58 58 56 55 57 59 58 58 58 58
53 53 52 52 54 54 53 53 54 54 55 55 55 55 54 52 50 50 50 51 52 54 55 55 55 55 55 55 56 57 58 59 60 61 61 61 62 62 62 63 63 63 64 64 64 64 64 64 64 63 63 63 63 63 62 62 61 61 61 60 60 60 60 59 59 59 60 60 61 60 60 60 59 59 60 60 60 60 60 59 61 63 65 66 66 66
53 53 53 53 54 54 54 54 54 55 56 55 54 54 54 53 52 51 51 51 51 52 53 53 52 52 52 52 52 53 54 55 56 58 59 60 61 61 62 63 63 64 64 64 64 65 65 65 65 64 64 65 65 65 65 65 64 63 63 63 63 63 62 62 62 62 62 63 63 63 62 62 62 62 63 63 64 64 64 64 65 67 69 70 71 71
54 54 55 55 55 55 55 54 55 57 57 57 55 55 55 55 55 54 53 53 53 53 52 51 51 51 50 50 50 50 50 51 52 53 54 56 57 59 60 61 62 63 63 63 63 64 65 65 65 65 66 66 66 67 67 68 67 66 65 65 65 65 65 65 64 64 64 65 65 65 64 64 64 65 65 66 66 66 67 67 68 69 71 71 72 72
56 57 58 57 57 57 56 56 58 59 58 57 57 57 58 57 57 57 56 56 55 55 53 52 52 52 51 50 49 49 50 50 51 52 53 54 55 55 56 57 59 60 60 61 61 63 64 64 65 66 67 68 68 67 67 68 69 69 68 67 67 66 66 66 66 66 66 66 66 66 66 66 67 67 67 68 68 68 68 69 70 71 72 72 72 72
58 59 60 59 59 59 58 59 60 60 58 58 59 60 59 58 57 58 58 58 58 57 56 55 55 54 54 53 52 51 51 52 52 52 53 54 54 54 55 56 57 58 58 58 58 58 60 63 66 69 69 69 69 68 68 69 70 70 70 69 68 67 66 65 65 65 66 67 67 67 67 68 68 69 69 69 69 70 70 71 71 72 72 73 72 72
58 59 60 60 60 60 59 60 61 61 60 59 60 60 60 60 59 60 60 60 60 60 59 59 58 57 57 56 56 55 55 55 55 55 55 54 55 55 56 57 58 58 58 57 55 54 57 62 66 68 68 68 69 68 67 68 68 68 68 68 67 66 65 64 64 64 64 65 65 66 67 67 68 68 68 69 69 70 70 71 71 72 72 72 72 71
60 61 61 62 62 62 61 62 63 63 61 60 61 62 62 63 63 63 64 64 63 63 62 61 61 60 60 60 60 60 60 60 59 59 58 58 58 58 59 59 59 59 59 59 57 56 58 61 64 65 66 67 67 65 65 66 66 65 65 66 65 64 63 64 64 63 62 62 62 62 63 63 64 65 66 67 68 69 69 70 71 71 71 70 70 70
63 63 64 65 65 64 64 65 66 64 63 62 63 64 65 65 66 67 67 67 66 65 64 64 64 64 64 64 64 65 65 65 64 63 62 62 63 63 63 62 62 61 61 60 59 58 59 60 62 64 65 66 66 63 63 65 65 64 63 63 63 64 64 64 64 63 62 61 60 59 59 59 60 62 64 66 67 68 68 69 70 70 70 69 68 68
65 65 66 67 66 66 66 67 67 66 65 64 65 66 67 67 68 69 70 69 67 66 66 67 67 68 68 68 68 69 69 69 68 67 66 67 67 67 67 66 65 64 64 63 63 62 62 62 62 63 65 66 66 64 64 65 66 65 63 62 61 62 64 65 65 65 65 62 60 60 60 60 61 62 64 65 66 67 68 68 69 69 68 68 67 66
68 68 68 69 68 67 68 69 70 68 67 66 67 68 69 69 70 71 71 69 68 68 69 70 71 72 72 72 72 73 73 72 72 71 71 71 71 70 70 69 68 68 67 67 66 66 66 65 65 65 66 66 67 66 66 67 67 68 67 64 61 60 62 65 67 67 66 65 63 63 63 63 63 64 64 65 65 66 66 67 68 68 68 68 68 67
70 71 71 71 70 70 70 71 71 70 68 67 68 70 71 72 73 73 71 69 69 71 73 74 75 76 75 75 75 76 76 75 75 74 74 74 74 73 72 72 71 72 72 71 71 70 70 69 68 67 68 69 70 70 70 70 70 71 71 69 66 65 65 67 68 67 66 67 66 66 66 66 65 66 66 66 65 65 65 66 66 67 67 67 67 67
72 72 72 72 72 72 72 73 72 71 69 69 69 71 73 75 76 74 72 71 73 74 75 76 77 77 77 77 78 78 78 78 77 77 76 77 77 76 75 75 75 75 75 75 75 75 74 73 72 71 71 72 73 74 74 73 72 73 74 73 72 70 69 69 70 70 69 69 69 69 69 69 69 69 69 68 67 67 67 66 66 66 66 67 67 67
72 72 73 73 73 74 74 74 74 72 71 70 71 72 74 76 77 76 75 75 75 76 76 77 78 79 79 79 79 79 79 79 79 79 79 79 79 79 79 79 79 79 79 78 78 79 78 77 76 76 76 76 77 77 77 76 75 75 76 75 75 74 72 71 72 72 72 72 72 73 73 72 72 72 72 71 70 69 68 68 67 67 67 68 68 69
71 71 72 73 74 74 74 75 74 74 73 72 72 73 75 76 77 78 77 77 77 77 77 78 79 79 79 79 79 79 79 80 80 81 81 82 82 82 82 82 82 82 82 81 81 81 81 80 79 79 79 79 80 80 80 79 78 78 78 78 78 78 76 75 74 74 74 74 75 75 76 76 75 75 74 74 73 71 70 70 69 69 69 69 70 71
69 69 70 72 72 72 73 73 74 74 74 73 73 73 74 75 76 77 77 77 78 78 78 78 79 80 80 80 81 81 81 82 82 83 83 83 84 84 85 85 85 85 84 84 84 83 83 82 81 80 80 81 82 82 82 82 81 80 80 80 80 80 79 79 78 77 77 77 77 77 78 78 78 77 76 75 74 73 72 72 72 72 72 72 73 74
69 69 70 71 72 72 72 72 73 73 73 73 73 73 73 74 74 75 76 77 77 78 78 79 79 80 81 81 82 82 83 83 83 84 85 85 86 86 87 88 88 88 87 87 86 86 85 84 83 82 82 82 82 83 83 83 82 82 82 82 82 81 81 81 81 80 80 79 79 79 79 80 80 80 78 76 75 74 74 74 74 74 75 75 76 77
68 69 70 71 71 72 72 72 73 73 73 72 72 72 72 73 73 74 74 75 76 77 78 78 79 80 80 81 81 82 83 84 84 85 86 86 87 87 88 88 88 89 89 88 88 87 86 85 84 83 83 83 83 83 82 82 82 83 83 83 83 83 83 82 82 82 81 81 80 80 80 80 81 81 80 78 76 75 75 75 76 76 76 77 78 79
67 68 69 70 70 70 71 71 71 71 71 71 70 71 71 72 73 73 74 75 76 77 77 78 78 78 79 79 80 81 82 83 83 84 85 86 86 87 87 87 88 88 88 89 88 88 87 86 84 83 82 82 83 83 82 81 81 81 82 82 83 83 83 83 83 82 82 81 80 80 79 80 80 81 81 79 77 76 75 76 76 76 77 78 79 80
63 64 66 67 67 68 68 68 68 68 68 68 68 69 69 70 71 72 73 74 74 75 75 75 75 75 76 77 77 78 79 79 80 80 80 82 83 83 84 85 85 86 86 87 87 87 86 85 84 83 82 82 81 81 80 79 79 79 80 81 81 81 81 81 81 81 80 80 79 78 78 78 79 79 80 80 79 77 75 74 75 75 76 77 79 79
58 59 60 61 62 63 64 64 64 65 65 65 66 67 67 68 68 68 69 69 70 70 71 71 71 72 72 73 74 74 75 76 76 75 75 76 77 78 78 79 80 81 82 83 83 83 83 83 82 82 81 81 80 79 77 77 76 76 77 78 79 79 78 77 77 76 76 76 76 77 77 77 77 77 77 78 78 76 74 72 72 73 74 75 76 77
53 53 54 54 55 56 57 58 59 60 61 61 62 63 64 64 64 63 63 64 64 64 65 66 66 66 67 67 68 69 70 70 71 70 70 70 71 72 72 72 73 74 76 76 77 78 78 78 78 78 78 78 77 76 75 74 74 73 72 72 73 74 74 73 72 72 72 72 73 73 73 74 74 74 74 74 74 74 72 71 70 70 71 72 73 72
Wind_Direction
251 251 251 252 253 254 255 255 256 255 255 255 255 256 257 257 257 258 258 259 259 259 258 257 257 257 258 260 260 261 261 262 262 262 262 263 265 266 267 269 270 269 268 266 264 262 260 257 254 252 249 247 248 249 247 246 247 247 248 247 243 242 240 241 243 244 246 247 252 261 272 280 282 283 282 282 283 284 286 289 290 291 291 293 295 298
251 251 252 253 253 254 254 255 255 254 254 254 255 255 255 254 254 254 255 256 256 256 257 256 256 256 257 258 260 260 259 259 259 260 260 261 261 263 266 268 267 265 263 261 259 258 257 256 254 252 250 247 246 248 249 248 246 245 245 246 243 241 240 242 244 246 249 251 253 258 267 276 281 282 283 283 284 286 288 290 292 293 294 294 296 298
251 252 252 253 253 253 253 253 253 253 253 253 254 254 253 253 253 253 254 255 255 256 257 258 256 255 254 254 255 256 256 256 257 258 258 258 258 261 264 267 265 263 260 258 256 255 254 255 254 252 250 248 246 246 248 249 248 247 247 248 247 243 242 243 245 248 253 255 255 258 262 268 275 279 282 283 285 287 289 291 293 295 296 296 297 298
252 252 252 252 252 251 251 252 251 252 253 253 253 252 252 252 252 253 253 255 256 256 257 258 256 254 252 252 253 254 255 257 257 257 257 257 258 261 263 264 263 261 260 258 257 255 254 253 253 251 250 249 247 246 247 248 249 249 250 251 252 250 247 247 248 251 256 257 257 261 263 265 270 275 279 283 285 288 290 292 294 295 296 297 298 298
251 251 250 250 250 249 250 250 250 251 252 252 252 251 252 252 253 254 254 254 255 256 256 257 256 255 254 253 253 254 255 257 257 257 258 257 258 260 260 261 262 261 261 260 258 256 253 251 250 249 249 249 249 248 249 250 251 250 250 251 253 253 251 251 251 253 257 259 261 264 266 267 270 274 278 281 284 287 289 291 292 294 295 295 296 296
251 250 250 249 249 249 249 249 250 251 252 253 253 253 252 253 254 254 255 255 255 255 255 255 255 255 255 254 254 255 256 256 257 258 258 258 258 257 258 260 261 261 261 261 259 255 252 251 250 248 248 249 249 249 249 250 252 252 253 253 253 253 252 252 253 254 257 260 263 266 268 269 272 274 277 280 282 284 286 288 289 291 292 292 294 294
250 250 250 250 250 250 250 250 250 251 252 254 256 255 254 253 254 254 255 254 254 254 254 253 253 254 255 254 255 256 257 256 256 257 257 257 256 256 257 258 259 258 259 259 258 255 252 251 251 251 250 249 249 250 250 250 250 251 253 254 255 255 255 255 255 256 258 261 263 266 267 269 271 274 276 279 281 282 283 284 286 287 288 289 291 293
250 250 250 250 250 250 251 250 251 252 253 255 257 258 256 255 254 253 254 253 253 253 252 251 252 254 255 255 254 254 255 255 255 254 255 256 256 256 257 257 257 257 256 257 257 256 254 252 252 252 252 251 251 251 251 252 252 252 253 254 255 257 258 258 259 260 261 263 265 267 268 269 270 272 274 276 278 280 281 282 283 283 284 286 288 290
250 249 250 251 252 252 252 251 252 253 254 256 257 258 256 254 253 253 253 252 252 252 251 251 253 255 256 256 254 251 250 252 253 254 254 255 256 256 256 255 255 254 254 255 256 256 256 255 253 253 253 253 253 253 253 254 255 256 257 257 258 259 260 261 262 263 265 266 268 270 271 271 271 271 272 274 276 278 279 280 280 280 281 283 285 286
249 248 249 251 251 251 251 251 252 253 254 255 256 256 255 254 253 252 252 252 252 252 252 252 253 255 257 258 256 251 248 249 251 253 253 254 255 254 253 253 253 253 253 254 255 256 257 257 256 255 254 252 252 253 254 257 260 262 263 263 263 262 262 263 264 265 267 268 270 271 273 273 273 272 272 273 274 276 276 276 275 275 276 279 280 282
249 249 249 249 250 251 252 253 252 252 253 254 254 255 255 254 253 252 253 253 254 254 254 254 254 254 256 258 258 253 249 248 248 249 251 252 253 252 251 251 252 252 251 252 255 257 258 259 259 257 255 253 252 252 255 260 267 271 269 267 266 265 264 264 265 266 266 267 269 271 273 274 275 274 273 273 272 273 273 272 270 270 272 275 276 279
249 250 249 249 250 251 252 252 251 251 252 252 252 253 254 254 254 253 253 254 253 253 254 254 253 253 254 257 259 257 252 249 247 247 248 248 250 251 250 250 252 252 252 253 255 258 260 260 260 259 258 256 254 255 261 266 267 268 268 266 264 262 261 261 262 263 264 266 268 270 271 273 274 275 274 273 272 271 270 269 268 268 269 271 273 275
249 250 250 249 250 250 250 251 251 251 251 251 251 252 253 254 255 254 253 252 252 252 252 252 253 253 253 256 261 261 256 251 249 247 246 246 246 248 249 250 251 252 254 255 256 258 259 259 259 258 257 256 256 258 258 250 241 243 251 256 258 257 257 259 260 261 263 265 266 268 269 272 275 275 274 274 274 273 270 267 266 266 267 268 270 270
248 249 249 249 249 250 250 252 252 251 250 250 251 252 253 254 255 256 255 252 251 251 251 252 253 254 254 255 259 262 259 253 249 247 246 247 247 248 249 250 252 253 255 257 258 259 259 258 257 256 255 254 251 243 236 232 230 232 238 245 251 257 260 261 259 257 259 261 263 267 269 272 276 277 278 278 278 277 272 268 267 267 267 268 268 267
249 248 248 248 249 250 251 252 252 252 251 251 252 252 253 254 255 255 255 254 253 253 253 252 252 253 253 253 255 258 258 255 251 248 247 248 250 251 252 253 254 255 258 261 263 264 263 260 256 256 255 251 240 232 234 234 232 232 236 239 243 250 257 260 258 256 257 257 259 263 267 269 274 278 282 283 282 280 274 269 269 270 270 269 268 267
250 249 248 248 249 250 250 251 251 252 251 251 253 254 254 254 255 255 256 256 256 255 254 252 251 251 250 250 250 254 257 256 253 251 248 248 251 254 255 256 258 261 265 266 265 265 265 263 260 257 255 250 239 233 235 238 237 235 235 239 242 246 253 258 259 259 260 258 257 260 263 265 267 271 278 283 283 281 277 271 269 270 271 271 271 271
251 251 250 249 250 251 251 251 251 251 251 251 253 255 255 254 255 256 257 257 258 258 256 254 253 251 249 248 248 252 255 254 253 252 250 251 254 258 260 259 259 262 264 263 264 266 267 265 262 259 256 251 245 240 240 241 242 239 234 237 242 244 248 255 260 263 263 261 259 259 261 263 263 264 270 275 277 279 278 274 271 272 273 273 274 274
251 252 252 251 251 253 253 253 252 251 251 252 253 254 255 255 254 256 257 257 257 258 257 255 255 253 250 248 248 251 254 254 254 253 252 252 249 248 251 253 253 255 255 257 262 267 268 266 263 259 255 252 250 248 247 246 245 243 239 239 242 243 244 249 256 262 262 260 260 260 261 263 262 263 265 267 270 273 275 274 272 274 274 273 274 275
249 251 253 253 252 253 254 255 254 253 252 253 253 254 255 254 253 254 256 256 256 256 256 256 257 256 253 251 250 251 254 255 256 255 254 254 250 247 250 253 256 258 259 260 261 261 263 264 263 262 258 254 253 252 253 253 251 247 244 243 245 244 242 241 246 253 256 256 257 258 259 260 261 263 265 266 266 267 269 270 271 273 275 273 272 272
250 252 252 252 253 253 255 256 256 255 253 253 254 253 253 254 252 252 254 255 256 257 258 258 259 259 257 255 253 252 254 255 256 256 256 256 255 255 256 258 260 262 262 263 262 261 261 262 262 263 262 258 257 258 258 259 257 254 250 247 246 246 244 240 241 246 251 253 253 254 256 258 259 262 265 265 263 264 265 265 266 269 272 272 270 269
249 251 252 252 252 253 254 256 256 256 254 254 254 253 253 254 254 253 255 256 258 259 260 260 260 260 259 258 256 255 255 256 256 257 257 257 258 258 259 260 261 262 262 262 262 262 262 262 261 262 262 262 262 262 263 262 260 258 255 252 250 249 248 245 243 244 248 251 253 254 255 256 257 259 261 261 260 261 263 265 265 266 268 269 268 267
248 251 253 252 252 253 254 255 255 255 254 253 254 254 254 255 256 256 256 256 258 259 259 259 259 259 259 258 257 255 255 256 256 257 257 258 258 259 259 260 261 261 261 262 262 262 262 263 264 263 263 263 263 263 263 261 260 258 256 254 253 251 250 249 247 247 248 251 254 257 257 257 256 257 259 260 261 263 266 268 269 268 268 268 268 267
248 251 254 254 254 254 254 255 256 256 255 254 255 255 255 255 255 256 256 255 256 257 258 258 258 258 258 258 257 256 256 256 256 257 258 258 259 260 261 262 262 262 262 262 262 263 264 264 265 265 265 264 264 263 262 261 259 257 255 254 253 252 251 251 250 250 250 252 254 256 258 259 259 258 259 261 263 265 268 270 271 271 271 270 268 268
248 251 255 256 256 256 256 256 258 259 258 256 255 255 256 256 255 255 256 256 255 256 257 258 258 258 258 258 258 257 257 257 257 258 259 260 260 261 262 262 262 262 262 262 262 263 263 264 265 266 267 267 266 266 265 263 261 259 257 255 253 252 251 251 251 252 252 252 253 255 257 260 261 261 261 262 263 266 269 270 271 272 273 273 271 270
250 252 255 257 258 258 258 256 257 258 259 257 256 255 255 256 255 255 255 256 256 256 256 257 257 258 259 259 259 259 258 259 259 259 259 259 260 260 260 261 261 261 262 262 263 263 263 263 263 264 265 266 266 266 265 264 262 260 258 256 255 253 252 251 251 251 251 252 252 254 256 258 259 261 262 263 263 265 268 269 271 272 273 275 276 275
251 251 253 255 256 257 258 257 255 256 258 257 256 254 254 255 255 255 255 256 257 257 256 256 257 257 257 258 259 259 259 259 259 259 259 259 259 259 260 260 260 260 260 261 262 263 263 263 263 262 262 262 262 262 262 262 261 260 258 257 255 254 253 252 251 251 251 251 251 252 254 256 258 259 261 262 263 265 267 269 271 272 272 274 275 276
250 250 250 253 255 256 258 258 258 257 258 259 257 255 253 253 254 255 255 256 256 257 257 257 257 257 257 257 258 259 259 259 259 258 258 258 259 259 259 259 259 259 259 260 260 261 262 263 263 262 261 260 259 259 259 259 259 258 257 256 255 254 253 253 253 253 252 252 252 252 252 254 256 258 259 260 262 265 267 268 268 267 266 266 267 269
251 251 250 251 253 256 258 259 260 259 259 260 259 257 255 254 254 255 256 256 257 258 258 258 258 258 258 258 258 258 258 259 259 259 259 259 259 259 258 258 258 258 258 258 258 258 259 259 260 261 261 261 260 259 258 258 257 257 256 256 255 255 254 254 254 254 254 254 254 253 253 253 255 257 258 258 259 261 262 263 263 261 259 259 260 263
252 252 252 252 253 253 255 257 258 259 258 258 259 259 257 256 255 255 256 257 257 258 259 259 259 259 258 258 258 257 257 257 257 258 258 258 257 257 257 257 257 257 257 257 257 258 258 259 259 260 261 262 261 260 259 257 256 256 255 255 255 255 255 255 255 254 254 254 254 254 254 254 255 257 259 259 259 259 259 258 258 257 255 255 256 259
252 253 253 254 255 254 253 254 256 258 259 259 259 260 259 258 257 256 256 257 257 258 258 259 258 258 257 257 257 257 257 256 256 256 256 257 256 256 256 256 256 256 256 257 258 259 259 260 260 261 261 261 261 260 259 258 257 256 256 255 255 255 255 255 255 255 255 255 255 255 255 255 255 256 258 259 259 260 259 257 256 255 255 255 256 257
251 253 254 255 256 257 257 258 259 260 261 262 262 264 265 264 262 260 259 258 258 258 258 258 258 257 256 257 256 256 256 256 256 256 256 256 256 256 256 255 255 255 256 256 257 258 259 260 260 261 261 261 261 260 259 258 257 257 256 256 255 254 254 253 254 254 254 254 254 254 254 254 255 255 255 256 257 258 258 256 255 255 256 258 259 259
252 254 256 256 256 258 260 261 262 263 264 265 266 267 268 268 267 265 263 262 260 260 259 258 258 257 257 256 256 256 257 257 257 257 257 256 256 256 256 256 257 257 257 257 257 258 259 259 260 261 261 261 261 261 260 259 258 256 256 256 256 255 254 253 253 253 253 254 254 254 254 254 254 254 254 255 255 256 256 256 255 256 257 258 259 261
252 253 254 254 255 257 258 260 261 262 263 264 266 266 266 267 267 267 266 264 263 261 260 259 259 258 257 257 257 257 258 258 258 258 258 258 257 257 257 257 257 257 258 258 259 260 261 261 261 262 261 261 261 261 262 262 261 259 257 256 255 255 255 255 254 254 254 255 255 255 255 254 254 254 254 255 255 256 257 257 257 257 258 259 260 261
251 252 253 254 255 256 257 258 258 259 261 263 265 265 265 266 267 267 267 266 265 264 262 261 260 259 259 258 258 258 258 258 258 258 258 258 258 258 258 258 258 258 258 258 258 259 260 262 262 262 262 261 261 261 261 262 262 262 260 259 257 256 256 256 256 256 256 256 256 256 256 256 256 255 255 256 256 256 257 258 258 259 259 260 260 261
251 253 255 256 257 258 259 259 260 261 261 262 262 263 264 265 266 267 267 267 267 266 265 264 264 263 263 262 260 259 259 258 258 258 258 258 259 259 259 259 259 259 258 258 257 258 259 260 260 260 260 260 260 260 260 260 261 262 262 262 262 261 259 258 257 257 256 256 256 256 257 257 257 257 257 257 257 257 257 258 258 259 260 260 261 262
250 252 254 256 257 258 259 259 260 260 260 261 262 263 264 264 264 264 265 265 265 266 266 266 267 267 266 266 264 263 262 260 259 258 257 257 258 258 258 258 258 258 258 258 257 256 257 257 257 258 259 260 260 260 260 260 261 262 263 264 264 264 264 263 262 260 259 258 258 258 258 258 258 259 259 259 259 259 259 259 259 259 260 260 260 261
249 249 251 252 254 255 256 256 257 258 259 260 261 261 262 262 263 263 263 263 264 265 266 267 267 267 267 267 266 266 265 263 262 261 260 259 258 257 256 256 256 256 256 257 256 255 255 256 257 258 259 260 260 260 261 262 263 263 263 265 266 266 266 265 264 263 262 261 260 259 259 259 260 260 261 261 261 261 261 261 261 261 261 260 260 260
249 249 249 250 251 252 254 255 256 257 258 259 259 260 261 262 263 264 264 265 265 266 267 267 267 267 267 266 266 266 266 265 264 263 263 261 260 259 258 257 257 256 256 257 256 255 255 256 258 260 261 262 262 262 262 263 263 263 263 263 264 265 266 266 266 266 264 263 262 262 261 260 260 260 259 259 260 260 260 260 260 260 261 261 261 260
253 253 252 252 252 253 254 255 256 257 257 259 260 260 261 262 263 264 264 266 267 268 268 268 267 267 266 266 266 265 265 265 265 264 264 263 263 262 262 261 260 260 259 258 258 257 256 256 256 258 260 262 264 264 264 264 264 264 263 262 261 262 264 265 266 266 266 265 264 264 263 262 260 259 258 257 257 258 258 259 259 260 261 261 261 261
256 255 255 255 255 254 254 255 256 256 257 258 259 260 261 262 262 262 264 265 267 267 267 267 266 266 265 265 265 265 265 265 265 265 265 265 265 265 265 265 265 265 264 262 261 260 258 257 257 257 258 259 260 262 263 263 264 265 264 263 261 260 260 261 261 262 264 265 264 263 262 262 261 260 259 258 257 257 258 258 259 260 261 262 262 263
256 256 257 257 257 257 256 256 257 257 258 258 259 260 261 261 260 260 261 262 263 263 263 264 264 265 265 265 266 266 266 266 266 266 266 266 266 266 266 266 266 266 266 266 265 263 262 261 260 260 259 260 259 259 259 260 261 262 263 263 261 260 259 259 260 260 261 262 262 262 261 261 261 260 260 259 259 259 258 258 259 260 261 262 262 263
256 257 258 258 258 258 258 258 258 258 258 258 258 259 259 260 260 260 260 259 259 259 260 261 262 263 264 265 265 266 267 268 268 268 268 268 268 267 267 266 266 265 265 265 265 265 264 264 263 262 261 261 260 260 260 259 259 260 261 262 262 261 259 259 260 261 261 261 261 262 261 261 261 261 260 260 259 259 259 259 259 259 260 261 262 262
256 256 257 258 258 259 259 259 260 259 259 258 258 258 258 259 260 261 260 260 259 259 260 261 262 263 263 264 265 266 267 268 268 269 269 269 269 268 268 267 266 265 265 264 264 264 264 264 264 264 263 262 262 262 262 262 261 261 262 262 263 262 261 260 260 261 261 261 262 262 262 261 261 261 261 261 260 260 260 260 259 260 260 261 262 262
255 256 257 257 258 258 259 260 260 260 260 259 258 258 258 259 260 261 261 261 261 262 262 263 263 264 265 265 266 266 267 267 268 268 268 268 268 268 267 267 267 266 266 265 265 264 264 264 263 263 263 263 263 263 263 263 262 262 262 263 263 263 263 263 262 261 261 261 261 262 262 262 261 261 261 262 262 262 262 262 262 261 261 261 262 262
257 257 258 258 259 259 259 259 260 260 260 260 259 258 259 259 260 261 261 262 263 263 263 263 264 264 265 265 265 266 266 266 266 267 267 267 268 268 268 268 268 268 267 267 266 266 265 265 264 263 263 262 263 263 263 264 264 263 263 263 263 263 264 264 263 263 262 262 262 262 262 263 263 263 262 262 263 263 264 264 264 264 264 263 263 263
259 259 259 260 260 261 261 261 261 261 261 261 261 260 260 260 261 261 262 262 263 263 264 264 264 264 264 264 265 265 266 266 266 267 267 267 267 268 268 268 268 268 268 268 268 268 267 267 266 265 264 264 263 263 263 263 264 264 264 264 264 264 263 263 263 263 263 262 262 262 263 263 264 264 264 264 264 264 264 264 264 265 265 265 265 265
260 261 261 261 261 261 261 262 262 262 262 263 263 264 264 264 264 264 264 264 265 265 265 264 264 264 265 265 265 265 266 266 266 266 266 267 267 267 267 268 268 269 269 269 269 269 269 268 268 267 267 266 265 265 264 263 263 263 263 263 264 264 264 263 263 263 263 263 262 262 262 263 264 264 265 264 264 263 263 263 264 264 264 264 264 264
259 260 260 261 261 262 262 262 263 264 264 265 265 265 266 266 267 267 267 266 266 266 266 266 266 266 266 266 266 265 265 265 265 265 266 266 267 267 268 268 268 269 269 270 270 270 270 270 269 269 268 267 267 266 265 265 264 264 263 263 263 263 263 263 263 263 263 263 263 263 263 263 263 264 265 265 264 263 263 262 262 263 263 263 264 264
258 259 259 260 261 262 263 264 264 265 266 266 267 267 267 267 267 266 266 266 266 266 266 267 267 267 267 267 267 267 267 266 266 266 266 266 266 267 267 268 268 268 268 269 269 270 270 270 270 270 269 269 268 267 266 266 265 264 264 263 263 263 262 262 262 262 263 263 263 263 263 263 263 263 264 265 265 264 263 262 262 262 262 262 263 263
259 259 259 260 261 262 264 265 266 267 267 267 267 267 267 266 266 266 266 266 266 267 267 267 267 267 267 267 268 268 268 268 268 268 268 267 267 267 267 267 267 267 267 267 268 268 269 269 269 269 269 269 269 268 268 267 266 265 264 263 263 263 263 262 262 262 262 262 262 262 262 262 262 262 263 264 264 264 263 262 262 261 261 261 262 262
261 262 262 263 263 264 264 265 265 265 265 265 266 266 267 267 268 268 268 268 268 268 268 268 268 267 267 267 267 268 268 269 269 269 269 269 268 268 268 267 267 267 267 266 266 267 267 267 268 268 268 268 269 269 269 268 267 266 264 263 263 263 264 264 263 263 263 262 262 262 262 262 262 262 262 263 264 264 264 264 262 261 261 261 261 262
Height
10585 10586 10587 10589 10591 10592 10592 10593 10595 10596 10596 10596 10598 10600 10604 10607 10607 10607 10607 10607 10610 10612 10613 10616 10619 10620 10620 10618 10618 10620 10622 10622 10623 10624 10625 10625 10624 10623 10623 10627 10631 10630 10630 10630 10629 10628 10627 10627 10627 10628 10628 10626 10623 10625 10626 10626 10626 10627 10627 10629 10630 10632 10634 10634 10634 10635 10635 10635 10636 10636 10636 10635 10634 10634 10634 10635 10636 10637 10638 10638 10637 10636 10638 10639 10639 10638
10579 10581 10583 10585 10586 10587 10587 10588 10590 10589 10589 10590 10592 10594 10599 10601 10601 10601 10601 10602 10604 10606 10607 10610 10614 10616 10615 10613 10612 10614 10615 10617 10618 10618 10620 10621 10620 10618 10618 10623 10626 10625 10625 10625 10624 10624 10623 10622 10623 10623 10624 10622 10621 10621 10622 10623 10622 10623 10623 10625 10628 10630 10631 10631 10631 10630 10631 10631 10632 10633 10634 10633 10632 10631 10630 10631 10631 10633 10634 10634 10633 10631 10632 10633 10634 10634
10574 10576 10578 10580 10581 10581 10581 10583 10584 10583 10583 10585 10586 10589 10593 10595 10596 10597 10596 10597 10599 10600 10602 10604 10607 10610 10610 10608 10608 10608 10609 10612 10613 10614 10616 10616 10615 10614 10615 10618 10620 10620 10620 10620 10620 10620 10619 10619 10619 10619 10619 10619 10618 10618 10618 10618 10619 10620 10621 10622 10625 10626 10627 10627 10627 10626 10626 10627 10628 10630 10631 10631 10630 10628 10627 10627 10627 10628 10629 10629 10628 10627 10626 10627 10628 10629
10570 10572 10573 10574 10575 10575 10576 10577 10578 10577 10578 10579 10581 10584 10588 10590 10591 10592 10592 10593 10595 10596 10597 10597 10599 10601 10602 10603 10603 10603 10605 10608 10609 10610 10612 10612 10612 10612 10612 10612 10614 10614 10614 10614 10615 10616 10616 10615 10615 10615 10616 10615 10615 10615 10615 10615 10616 10618 10620 10620 10621 10622 10623 10623 10623 10622 10622 10622 10623 10625 10627 10628 10628 10626 10624 10624 10624 10623 10623 10624 10623 10622 10621 10621 10622 10623
10565 10566 10568 10569 10569 10570 10571 10572 10572 10572 10572 10573 10575 10579 10583 10585 10586 10587 10588 10589 10590 10591 10591 10591 10590 10591 10594 10597 10598 10600 10602 10603 10604 10606 10607 10608 10608 10608 10607 10607 10608 10608 10608 10609 10611 10611 10611 10610 10610 10611 10612 10612 10612 10613 10613 10614 10615 10616 10617 10618 10618 10618 10618 10618 10618 10618 10617 10617 10617 10619 10621 10623 10623 10622 10621 10620 10620 10620 10619 10618 10618 10617 10617 10617 10617 10617
10560 10561 10563 10563 10563 10565 10566 10567 10568 10567 10566 10566 10568 10574 10579 10581 10582 10581 10582 10584 10585 10585 10586 10586 10583 10584 10587 10590 10592 10594 10597 10599 10600 10602 10602 10603 10604 10603 10603 10603 10603 10604 10603 10604 10605 10604 10604 10604 10605 10608 10609 10610 10610 10611 10612 10612 10613 10614 10614 10614 10614 10613 10612 10612 10613 10613 10613 10613 10613 10613 10615 10616 10617 10617 10617 10616 10615 10615 10615 10614 10613 10613 10612 10612 10612 10612
10554 10556 10557 10557 10558 10560 10561 10562 10562 10562 10562 10562 10563 10568 10574 10576 10576 10576 10576 10577 10579 10579 10580 10580 10578 10578 10580 10583 10587 10590 10592 10594 10596 10598 10597 10598 10599 10598 10598 10599 10599 10599 10599 10598 10598 10597 10598 10599 10602 10604 10606 10607 10608 10608 10609 10610 10611 10611 10611 10610 10609 10608 10608 10608 10609 10610 10610 10609 10608 10608 10609 10610 10610 10611 10612 10611 10611 10610 10610 10610 10610 10609 10609 10608 10608 10608
10550 10551 10551 10552 10553 10554 10555 10556 10556 10557 10558 10558 10558 10562 10567 10569 10570 10570 10570 10571 10573 10574 10574 10574 10573 10572 10573 10576 10583 10587 10588 10589 10591 10592 10592 10592 10593 10593 10593 10593 10593 10593 10594 10593 10591 10590 10592 10596 10599 10600 10602 10604 10605 10606 10607 10607 10608 10607 10607 10605 10604 10603 10603 10604 10605 10606 10606 10605 10604 10603 10603 10604 10605 10606 10607 10607 10606 10605 10605 10605 10605 10605 10605 10605 10605 10605
10545 10546 10546 10547 10548 10549 10550 10550 10551 10553 10554 10553 10554 10556 10559 10561 10563 10563 10564 10565 10567 10567 10568 10569 10568 10567 10567 10569 10577 10584 10584 10584 10586 10587 10587 10587 10587 10588 10587 10588 10588 10588 10588 10587 10585 10584 10587 10591 10595 10597 10599 10600 10602 10603 10604 10605 10605 10605 10604 10602 10600 10600 10600 10600 10601 10602 10602 10601 10600 10598 10596 10596 10597 10599 10601 10601 10601 10600 10600 10600 10600 10600 10600 10600 10601 10601
10539 10540 10541 10543 10543 10543 10543 10544 10547 10549 10548 10549 10549 10549 10551 10555 10557 10557 10558 10560 10561 10561 10562 10565 10565 10563 10562 10562 10568 10578 10580 10581 10583 10582 10581 10581 10581 10581 10581 10582 10582 10582 10583 10581 10579 10580 10583 10587 10590 10593 10595 10596 10598 10600 10602 10603 10604 10604 10602 10599 10597 10595 10595 10596 10596 10596 10596 10595 10593 10591 10589 10588 10589 10591 10594 10595 10595 10595 10595 10595 10595 10595 10595 10596 10596 10596
10531 10534 10538 10538 10537 10537 10537 10539 10543 10544 10544 10545 10544 10543 10545 10548 10551 10552 10553 10555 10557 10557 10557 10560 10561 10560 10559 10556 10559 10569 10576 10578 10579 10577 10576 10576 10575 10576 10576 10577 10577 10578 10578 10576 10575 10577 10579 10582 10586 10589 10590 10592 10594 10598 10602 10606 10608 10607 10600 10594 10591 10588 10587 10589 10588 10588 10588 10587 10586 10586 10584 10582 10581 10583 10585 10587 10589 10589 10589 10590 10590 10591 10591 10591 10591 10592
10526 10529 10532 10532 10532 10532 10532 10533 10536 10538 10539 10539 10538 10538 10539 10541 10545 10547 10549 10551 10552 10552 10553 10554 10555 10555 10554 10552 10553 10561 10569 10573 10573 10572 10572 10571 10570 10570 10571 10572 10572 10573 10573 10571 10572 10574 10576 10579 10582 10584 10586 10588 10592 10599 10606 10610 10612 10606 10593 10584 10581 10578 10578 10579 10579 10580 10581 10581 10582 10582 10580 10577 10575 10574 10576 10579 10581 10583 10584 10584 10586 10587 10587 10587 10587 10587
10522 10523 10526 10527 10527 10526 10526 10527 10530 10533 10534 10534 10533 10534 10534 10536 10539 10541 10544 10546 10546 10546 10547 10548 10549 10548 10549 10550 10550 10553 10561 10566 10566 10567 10566 10566 10566 10566 10567 10568 10568 10569 10568 10567 10569 10571 10573 10575 10578 10580 10582 10584 10591 10601 10606 10604 10600 10592 10581 10573 10570 10569 10570 10572 10574 10576 10578 10578 10578 10577 10575 10573 10570 10568 10569 10571 10574 10577 10579 10580 10581 10583 10583 10583 10583 10583
10517 10518 10520 10521 10520 10520 10521 10522 10524 10528 10529 10528 10528 10529 10530 10532 10534 10535 10537 10539 10540 10541 10542 10543 10543 10543 10545 10549 10548 10546 10553 10559 10560 10561 10561 10561 10561 10562 10563 10564 10564 10565 10563 10563 10565 10568 10569 10571 10574 10576 10577 10582 10591 10596 10594 10587 10581 10577 10573 10568 10564 10563 10564 10566 10569 10573 10575 10575 10573 10572 10571 10570 10567 10564 10563 10565 10568 10572 10574 10575 10577 10578 10579 10579 10579 10580
10512 10513 10515 10515 10514 10516 10516 10516 10518 10521 10523 10522 10523 10525 10526 10528 10529 10529 10529 10532 10534 10535 10537 10538 10538 10538 10541 10546 10545 10542 10545 10551 10554 10555 10556 10557 10557 10558 10560 10560 10560 10561 10560 10560 10562 10563 10564 10566 10570 10571 10572 10578 10585 10585 10578 10572 10570 10571 10571 10568 10564 10562 10561 10561 10564 10568 10570 10569 10568 10567 10567 10566 10565 10562 10560 10560 10563 10567 10569 10571 10572 10573 10573 10574 10575 10576
10507 10508 10510 10510 10510 10511 10510 10511 10512 10514 10516 10518 10519 10520 10521 10522 10523 10523 10524 10526 10528 10529 10530 10531 10531 10533 10538 10542 10542 10539 10541 10545 10548 10549 10552 10553 10554 10555 10556 10557 10557 10557 10557 10557 10558 10559 10559 10560 10563 10565 10567 10572 10577 10575 10568 10564 10565 10567 10571 10570 10566 10563 10560 10559 10561 10564 10565 10563 10563 10563 10562 10562 10562 10560 10558 10558 10558 10561 10563 10565 10567 10567 10568 10569 10570 10571
10501 10502 10504 10504 10506 10506 10504 10506 10507 10508 10511 10513 10515 10515 10515 10517 10517 10518 10520 10521 10523 10523 10524 10525 10525 10528 10534 10537 10538 10537 10536 10539 10541 10543 10546 10549 10552 10553 10552 10553 10554 10554 10554 10553 10553 10554 10553 10554 10555 10557 10560 10565 10568 10567 10562 10559 10559 10563 10569 10570 10565 10560 10558 10559 10561 10561 10559 10557 10556 10557 10557 10558 10557 10556 10556 10556 10555 10556 10557 10558 10560 10562 10563 10564 10564 10566
10496 10496 10497 10499 10500 10499 10498 10499 10500 10502 10506 10508 10509 10510 10509 10510 10512 10513 10515 10516 10517 10516 10516 10518 10520 10523 10528 10532 10534 10533 10532 10533 10535 10538 10540 10544 10549 10549 10547 10548 10549 10550 10550 10551 10552 10550 10547 10547 10548 10549 10553 10557 10560 10559 10556 10554 10555 10559 10564 10564 10558 10554 10556 10561 10561 10555 10550 10550 10550 10551 10552 10552 10552 10552 10552 10552 10551 10552 10553 10553 10554 10555 10557 10558 10559 10559
10491 10490 10491 10493 10493 10492 10492 10492 10494 10498 10501 10501 10503 10504 10503 10504 10507 10509 10509 10510 10510 10509 10510 10513 10514 10517 10522 10527 10530 10529 10527 10527 10529 10531 10534 10537 10541 10542 10541 10542 10543 10544 10545 10546 10548 10546 10542 10541 10541 10542 10546 10549 10551 10552 10549 10548 10549 10553 10557 10555 10551 10548 10552 10556 10554 10545 10541 10542 10544 10545 10546 10546 10546 10546 10547 10547 10546 10546 10547 10548 10549 10550 10551 10552 10553 10553
10486 10484 10485 10486 10485 10486 10487 10486 10488 10492 10494 10494 10496 10497 10497 10498 10501 10504 10503 10503 10504 10503 10505 10508 10509 10511 10516 10521 10524 10524 10522 10522 10522 10524 10527 10529 10531 10533 10534 10535 10535 10537 10537 10537 10539 10538 10536 10536 10535 10536 10538 10541 10543 10543 10542 10541 10541 10544 10547 10547 10544 10542 10544 10547 10544 10539 10537 10537 10538 10539 10540 10540 10540 10540 10541 10542 10540 10539 10539 10540 10542 10544 10545 10545 10546 10546
10480 10477 10477 10479 10478 10480 10480 10480 10482 10484 10486 10488 10488 10489 10491 10493 10496 10499 10499 10499 10499 10499 10500 10502 10503 10505 10509 10513 10516 10517 10517 10516 10516 10517 10519 10521 10522 10523 10524 10526 10527 10528 10528 10528 10529 10528 10528 10528 10529 10530 10532 10533 10534 10535 10534 10534 10534 10535 10537 10537 10536 10535 10536 10537 10537 10535 10533 10532 10531 10532 10533 10534 10535 10535 10535 10535 10534 10533 10531 10531 10534 10537 10538 10538 10539 10540
10474 10471 10470 10471 10472 10473 10473 10474 10475 10476 10479 10481 10481 10483 10486 10488 10491 10493 10493 10493 10493 10491 10492 10494 10495 10498 10502 10504 10507 10509 10509 10510 10510 10511 10512 10513 10513 10514 10515 10517 10518 10518 10519 10520 10520 10520 10520 10521 10522 10523 10524 10525 10526 10526 10526 10526 10526 10526 10527 10527 10526 10527 10528 10529 10528 10528 10528 10526 10525 10524 10525 10527 10528 10528 10528 10528 10528 10527 10526 10525 10526 10528 10530 10531 10532 10532
10468 10465 10462 10464 10465 10466 10467 10468 10468 10469 10472 10474 10474 10477 10480 10482 10484 10485 10485 10486 10485 10483 10484 10485 10488 10491 10494 10496 10498 10500 10501 10502 10503 10504 10504 10505 10506 10506 10507 10509 10509 10509 10510 10511 10512 10512 10513 10513 10514 10515 10516 10517 10517 10517 10517 10517 10517 10518 10518 10518 10517 10518 10520 10520 10520 10521 10521 10521 10519 10517 10517 10518 10520 10521 10521 10522 10522 10522 10522 10520 10520 10520 10521 10522 10523 10523
10462 10459 10457 10456 10458 10459 10461 10463 10463 10462 10465 10466 10467 10471 10474 10474 10477 10477 10476 10477 10477 10477 10477 10478 10480 10484 10487 10488 10490 10492 10493 10494 10495 10497 10497 10498 10499 10499 10499 10500 10500 10499 10500 10502 10503 10505 10505 10505 10506 10507 10507 10508 10508 10508 10508 10508 10509 10510 10510 10509 10509 10510 10511 10512 10512 10513 10514 10514 10513 10512 10511 10511 10512 10513 10515 10515 10516 10515 10516 10515 10515 10515 10513 10512 10511 10513
10455 10454 10452 10450 10451 10452 10453 10457 10458 10456 10455 10457 10460 10465 10466 10466 10468 10469 10468 10468 10468 10469 10470 10471 10474 10478 10479 10480 10482 10484 10486 10487 10488 10489 10490 10490 10490 10491 10491 10492 10492 10491 10491 10492 10493 10495 10497 10498 10499 10500 10500 10500 10499 10499 10499 10499 10500 10501 10501 10501 10501 10502 10503 10504 10505 10506 10506 10506 10506 10506 10506 10506 10506 10507 10508 10509 10509 10509 10509 10509 10509 10508 10506 10504 10503 10502
10447 10447 10446 10444 10444 10445 10444 10447 10450 10449 10446 10447 10451 10456 10457 10457 10459 10460 10460 10459 10459 10460 10462 10464 10467 10470 10472 10473 10474 10476 10478 10479 10480 10480 10481 10481 10481 10482 10483 10484 10484 10483 10483 10483 10484 10485 10486 10488 10490 10492 10493 10493 10492 10492 10491 10491 10491 10491 10492 10493 10493 10494 10495 10496 10497 10498 10498 10498 10499 10501 10502 10501 10501 10502 10502 10503 10503 10502 10502 10503 10502 10501 10500 10499 10497 10494
10438 10439 10439 10438 10437 10438 10437 10437 10440 10440 10438 10437 10440 10445 10448 10449 10450 10451 10451 10451 10451 10451 10453 10456 10459 10462 10464 10466 10467 10468 10469 10469 10470 10471 10471 10472 10473 10474 10475 10474 10474 10474 10474 10475 10475 10476 10476 10477 10478 10480 10482 10484 10485 10485 10484 10484 10483 10484 10484 10485 10486 10486 10487 10489 10490 10490 10491 10491 10492 10495 10496 10496 10496 10496 10496 10497 10497 10495 10496 10496 10495 10494 10493 10493 10492 10488
10429 10429 10431 10432 10431 10431 10430 10430 10430 10430 10429 10428 10430 10434 10438 10441 10442 10443 10443 10443 10443 10443 10444 10447 10451 10453 10455 10458 10460 10460 10461 10460 10461 10462 10462 10463 10464 10465 10465 10465 10465 10465 10465 10465 10465 10466 10467 10468 10468 10470 10472 10474 10477 10478 10478 10477 10476 10476 10476 10477 10477 10479 10480 10482 10483 10483 10484 10484 10485 10487 10489 10490 10490 10489 10488 10491 10491 10490 10490 10489 10487 10486 10487 10486 10485 10484
10419 10420 10422 10424 10423 10423 10424 10423 10422 10421 10421 10421 10422 10424 10428 10432 10434 10436 10436 10436 10436 10435 10434 10437 10442 10444 10446 10448 10450 10450 10452 10452 10452 10453 10453 10454 10456 10456 10456 10456 10455 10455 10455 10455 10455 10456 10457 10458 10460 10461 10463 10465 10467 10468 10469 10469 10469 10468 10469 10469 10470 10471 10473 10474 10475 10475 10476 10476 10477 10479 10481 10482 10483 10482 10481 10482 10483 10482 10484 10483 10478 10477 10478 10478 10478 10479
10411 10412 10414 10415 10414 10415 10416 10416 10415 10414 10414 10414 10415 10416 10419 10423 10427 10428 10429 10428 10428 10427 10426 10428 10432 10435 10437 10439 10440 10441 10442 10443 10443 10444 10444 10445 10446 10446 10446 10447 10447 10447 10446 10446 10447 10448 10449 10450 10451 10453 10455 10456 10457 10458 10459 10459 10460 10460 10461 10462 10463 10463 10464 10465 10466 10467 10467 10468 10469 10471 10473 10474 10476 10475 10474 10474 10474 10474 10476 10476 10473 10470 10470 10470 10471 10472
10404 10404 10406 10407 10407 10407 10408 10409 10408 10407 10407 10407 10408 10409 10411 10415 10418 10420 10421 10421 10420 10419 10419 10420 10423 10426 10429 10430 10431 10432 10433 10433 10434 10435 10435 10436 10436 10436 10437 10437 10438 10438 10438 10439 10439 10439 10440 10441 10442 10444 10445 10446 10446 10447 10448 10449 10451 10452 10452 10453 10454 10455 10456 10457 10458 10458 10459 10460 10461 10463 10465 10467 10468 10468 10467 10467 10467 10467 10468 10468 10467 10465 10464 10464 10465 10465
10398 10398 10399 10400 10400 10401 10402 10402 10402 10401 10400 10400 10402 10404 10405 10406 10408 10410 10411 10412 10412 10412 10412 10413 10415 10418 10421 10422 10423 10423 10424 10424 10425 10426 10426 10427 10427 10428 10428 10428 10428 10429 10430 10430 10431 10430 10431 10432 10433 10434 10435 10435 10435 10435 10436 10437 10440 10442 10443 10443 10444 10445 10446 10448 10449 10450 10451 10452 10452 10454 10457 10459 10460 10460 10459 10459 10459 10459 10460 10460 10460 10460 10459 10458 10458 10458
10391 10392 10392 10393 10394 10395 10396 10397 10396 10395 10394 10395 10397 10398 10399 10399 10400 10401 10402 10403 10403 10404 10404 10406 10407 10409 10411 10413 10414 10415 10416 10416 10416 10417 10418 10418 10418 10419 10419 10419 10420 10420 10421 10422 10423 10423 10422 10423 10424 10425 10425 10424 10425 10425 10425 10426 10427 10430 10432 10433 10434 10435 10437 10438 10440 10442 10443 10443 10444 10445 10447 10449 10450 10450 10451 10451 10451 10451 10452 10452 10452 10452 10452 10451 10451 10451
10384 10384 10385 10386 10387 10388 10390 10390 10388 10387 10389 10391 10391 10390 10391 10393 10394 10393 10393 10394 10393 10394 10396 10397 10398 10400 10402 10404 10406 10406 10407 10407 10407 10408 10408 10408 10409 10410 10411 10411 10411 10411 10413 10415 10416 10415 10415 10415 10415 10415 10414 10414 10414 10416 10416 10416 10416 10417 10419 10421 10423 10425 10427 10430 10432 10433 10434 10434 10435 10436 10438 10439 10440 10441 10441 10442 10443 10443 10444 10443 10443 10443 10443 10443 10444 10444
10378 10378 10378 10379 10380 10381 10383 10383 10381 10381 10384 10385 10384 10383 10384 10387 10387 10386 10384 10384 10384 10385 10386 10388 10389 10391 10393 10395 10397 10397 10398 10398 10399 10399 10399 10400 10401 10401 10401 10402 10402 10402 10404 10405 10407 10409 10409 10408 10406 10403 10403 10403 10405 10406 10407 10407 10407 10407 10408 10409 10411 10414 10416 10419 10422 10424 10424 10425 10426 10427 10428 10429 10430 10431 10432 10433 10434 10434 10434 10434 10434 10435 10435 10435 10435 10436
10374 10373 10373 10373 10373 10374 10375 10374 10372 10373 10376 10377 10377 10377 10377 10378 10379 10378 10376 10375 10376 10376 10377 10378 10380 10381 10383 10385 10386 10387 10387 10388 10389 10390 10391 10392 10392 10392 10392 10392 10392 10393 10394 10395 10399 10402 10401 10398 10395 10394 10394 10394 10395 10396 10398 10398 10399 10400 10400 10400 10401 10402 10405 10408 10410 10413 10414 10416 10417 10418 10418 10419 10421 10422 10423 10424 10424 10424 10424 10425 10425 10425 10426 10426 10427 10428
10366 10366 10366 10365 10365 10365 10366 10364 10362 10364 10367 10370 10370 10369 10368 10368 10368 10369 10368 10367 10368 10369 10370 10371 10372 10372 10373 10374 10374 10375 10376 10376 10377 10379 10381 10382 10382 10382 10382 10382 10383 10384 10385 10387 10390 10394 10392 10389 10387 10387 10387 10385 10385 10389 10391 10390 10392 10394 10393 10392 10393 10394 10396 10397 10398 10400 10402 10404 10406 10407 10409 10410 10411 10412 10413 10413 10413 10413 10414 10414 10414 10415 10416 10416 10418 10419
10356 10357 10357 10356 10356 10358 10357 10355 10355 10357 10360 10361 10360 10360 10359 10359 10360 10360 10359 10359 10361 10363 10364 10364 10363 10363 10363 10363 10363 10363 10363 10364 10365 10367 10370 10370 10370 10371 10371 10373 10374 10376 10377 10379 10382 10385 10385 10383 10382 10380 10379 10377 10377 10382 10384 10382 10383 10385 10386 10386 10386 10386 10386 10387 10387 10388 10389 10392 10395 10397 10399 10400 10401 10401 10402 10402 10402 10402 10403 10403 10403 10404 10406 10407 10408 10409
10346 10347 10347 10348 10349 10351 10350 10347 10348 10350 10353 10353 10352 10352 10352 10352 10352 10351 10350 10352 10355 10356 10355 10354 10353 10352 10352 10352 10351 10351 10351 10352 10354 10356 10357 10358 10358 10359 10361 10363 10364 10366 10368 10369 10372 10374 10376 10377 10376 10375 10373 10371 10371 10373 10374 10373 10373 10375 10376 10378 10380 10380 10380 10379 10378 10378 10377 10381 10385 10387 10387 10388 10388 10388 10389 10390 10391 10392 10392 10392 10393 10394 10396 10398 10399 10400
10334 10335 10337 10338 10340 10343 10342 10340 10340 10343 10347 10348 10346 10344 10344 10344 10343 10341 10342 10347 10349 10347 10344 10343 10341 10339 10340 10341 10341 10340 10340 10342 10343 10345 10346 10347 10348 10349 10351 10353 10354 10355 10357 10358 10360 10362 10364 10366 10367 10368 10367 10366 10365 10366 10366 10365 10364 10364 10365 10369 10372 10373 10372 10370 10368 10369 10370 10371 10374 10375 10375 10376 10377 10377 10378 10380 10381 10382 10383 10383 10384 10385 10387 10389 10390 10391
10324 10324 10325 10327 10330 10331 10332 10331 10332 10335 10339 10341 10339 10337 10335 10333 10331 10333 10337 10341 10340 10336 10333 10332 10330 10329 10330 10331 10330 10329 10330 10331 10333 10334 10335 10336 10338 10339 10342 10344 10345 10344 10344 10345 10346 10348 10350 10352 10355 10357 10357 10356 10356 10356 10357 10357 10357 10355 10355 10358 10361 10362 10362 10360 10358 10360 10362 10362 10363 10364 10365 10366 10367 10367 10368 10369 10371 10372 10373 10375 10376 10376 10378 10379 10380 10380
10314 10315 10315 10316 10318 10319 10320 10321 10322 10325 10329 10331 10330 10328 10325 10320 10319 10323 10328 10330 10328 10325 10324 10323 10321 10321 10321 10321 10321 10320 10320 10321 10322 10323 10324 10325 10326 10328 10330 10332 10333 10332 10333 10333 10333 10334 10336 10339 10341 10343 10344 10343 10343 10343 10344 10346 10348 10346 10345 10347 10349 10350 10352 10352 10350 10351 10352 10353 10353 10354 10355 10356 10357 10357 10358 10359 10361 10362 10363 10365 10367 10367 10368 10369 10369 10370
10305 10306 10306 10306 10307 10308 10308 10309 10311 10315 10318 10319 10319 10317 10314 10310 10309 10311 10314 10315 10315 10315 10315 10314 10313 10313 10313 10313 10313 10313 10313 10313 10312 10313 10313 10313 10313 10314 10316 10317 10318 10318 10319 10321 10321 10322 10324 10327 10328 10329 10330 10330 10330 10331 10331 10333 10336 10336 10336 10337 10337 10338 10341 10342 10342 10342 10342 10343 10343 10343 10343 10344 10345 10346 10347 10348 10350 10352 10354 10356 10357 10358 10359 10360 10360 10360
10296 10297 10297 10296 10297 10298 10298 10298 10300 10303 10305 10306 10307 10306 10304 10302 10301 10300 10301 10302 10304 10305 10305 10305 10304 10304 10304 10304 10304 10304 10304 10304 10303 10302 10302 10301 10300 10300 10300 10301 10303 10304 10305 10307 10309 10310 10312 10314 10316 10317 10317 10317 10317 10318 10319 10320 10323 10324 10325 10326 10325 10325 10327 10330 10331 10332 10332 10332 10331 10331 10331 10332 10333 10334 10336 10337 10340 10342 10344 10345 10347 10348 10349 10350 10350 10349
10286 10288 10288 10287 10287 10288 10289 10289 10289 10290 10292 10293 10295 10295 10294 10293 10293 10292 10292 10292 10293 10294 10295 10295 10295 10294 10293 10293 10293 10293 10293 10292 10291 10291 10290 10290 10289 10288 10288 10287 10288 10290 10291 10292 10293 10295 10297 10300 10302 10304 10305 10305 10305 10306 10306 10307 10310 10311 10312 10312 10313 10314 10315 10316 10317 10319 10320 10320 10320 10320 10320 10320 10320 10322 10325 10327 10330 10332 10333 10335 10336 10336 10337 10338 10338 10338
10276 10277 10277 10277 10277 10277 10278 10278 10278 10279 10280 10281 10282 10283 10283 10284 10283 10283 10283 10283 10283 10283 10283 10283 10283 10283 10282 10282 10282 10281 10281 10281 10280 10280 10279 10278 10278 10276 10275 10274 10274 10275 10276 10278 10278 10280 10282 10284 10287 10289 10291 10292 10292 10293 10295 10296 10297 10299 10299 10299 10300 10301 10302 10303 10304 10305 10306 10308 10309 10309 10310 10309 10309 10310 10313 10316 10319 10322 10323 10324 10324 10325 10325 10325 10326 10326
10266 10266 10266 10265 10266 10266 10266 10266 10267 10267 10268 10270 10271 10272 10273 10273 10273 10273 10273 10272 10272 10271 10271 10270 10270 10270 10270 10270 10271 10271 10270 10269 10268 10267 10267 10266 10265 10264 10263 10263 10263 10262 10262 10263 10263 10264 10266 10268 10271 10273 10276 10277 10277 10278 10280 10283 10284 10285 10286 10286 10287 10288 10289 10290 10290 10291 10293 10295 10296 10298 10299 10299 10298 10298 10300 10304 10307 10310 10312 10312 10313 10314 10314 10314 10313 10314
10256 10256 10254 10253 10254 10255 10255 10255 10256 10257 10258 10259 10261 10262 10262 10262 10261 10261 10261 10260 10260 10259 10258 10258 10258 10258 10258 10258 10258 10258 10257 10255 10255 10255 10255 10253 10253 10252 10251 10251 10251 10251 10250 10249 10249 10249 10250 10252 10255 10257 10260 10262 10262 10262 10264 10268 10270 10271 10272 10273 10273 10274 10275 10276 10277 10278 10280 10281 10283 10285 10287 10288 10288 10288 10288 10290 10294 10297 10300 10301 10302 10303 10303 10302 10301 10301
10245 10245 10245 10245 10245 10245 10245 10245 10246 10248 10249 10250 10250 10251 10251 10250 10249 10249 10248 10248 10247 10247 10246 10246 10247 10246 10246 10245 10244 10244 10243 10242 10242 10243 10243 10242 10241 10241 10240 10239 10239 10239 10238 10237 10236 10236 10236 10238 10239 10241 10243 10244 10245 10246 10248 10252 10254 10256 10257 10258 10258 10259 10261 10263 10264 10265 10267 10269 10270 10272 10274 10275 10277 10277 10277 10278 10280 10283 10286 10289 10290 10291 10291 10290 10289 10289
10235 10236 10237 10237 10237 10237 10237 10237 10238 10239 10239 10239 10239 10239 10238 10237 10237 10237 10237 10237 10237 10236 10236 10236 10236 10235 10234 10234 10233 10232 10230 10229 10229 10230 10231 10231 10229 10229 10228 10228 10227 10226 10225 10224 10224 10224 10224 10225 10226 10227 10228 10228 10229 10230 10233 10236 10238 10240 10243 10243 10243 10244 10246 10249 10251 10253 10255 10257 10258 10259 10261 10262 10264 10265 10266 10267 10267 10269 10272 10275 10277 10278 10279 10278 10277 10278
10226 10228 10229 10230 10231 10231 10231 10230 10230 10229 10229 10229 10229 10228 10227 10226 10226 10226 10226 10226 10226 10226 10226 10225 10225 10224 10223 10223 10222 10221 10220 10219 10218 10219 10219 10218 10217 10216 10216 10216 10216 10214 10213 10212 10212 10212 10213 10214 10214 10215 10215 10215 10215 10217 10219 10221 10222 10224 10227 10230 10231 10231 10233 10235 10238 10240 10242 10244 10245 10247 10248 10250 10252 10253 10255 10256 10257 10257 10259 10261 10263 10265 10266 10266 10266 10268